Regional Weather Roundup
Issued by NWS Cleveland, OH

Home | Current Version | Previous Version | Graphics & Text | Print | Product List | Glossary On
Versions: 1 2 3 4 5 6 7 8 9 10 11 12 13 14 15 16 17 18 19 20 21 22 23 24 25 26 27 28 29 30 31 32 33 34 35 36 37 38 39 40 41 42 43 44 45 46 47 48 49 50
000
ASUS41 KCLE 180212
RWRCLE
OHIO REGIONAL WEATHER ROUNDUP
NATIONAL WEATHER SERVICE WILMINGTON, OH
1000 PM EDT TUE OCT 17 2017

NOTE: "FAIR" INDICATES FEW OR NO CLOUDS BELOW 12,000 FEET WITH NO
SIGNIFICANT WEATHER AND/OR OBSTRUCTIONS TO VISIBILITY.

OHZ001>008-015>018-024>027-034-035-043-044-180300-
   NORTHWEST OHIO

CITY           SKY/WX    TMP DP  RH WIND       PRES   REMARKS
DEFIANCE       FAIR      52  39  61 SW5       30.23R
FINDLAY        FAIR      49  39  68 S8        30.23R
TOLEDO EXPRESS FAIR      57  42  57 SW8       30.21R
TOLEDO EXEC    FAIR      53  41  63 SW5       30.22R
LIMA           FAIR      52  40  63 S7        30.24R
$$

OHZ009>014-019>023-028>033-038-089-180300-
   NORTHEAST OHIO

CITY           SKY/WX    TMP DP  RH WIND       PRES   REMARKS
CLE-HOPKINS    FAIR      57  39  51 S10       30.25R
CLE-LAKEFRONT  FAIR      60  37  42 S13       30.22R
CUY CO. ARPT   CLEAR     59  39  47 SW9       30.23R
LORAIN-ELYRIA  FAIR      50  36  58 SW7       30.24R
ASHTABULA      FAIR      54  39  57 S8        30.24R
AKRON-CANTON   FAIR      51  38  60 SW7       30.26R
WOOSTER        FAIR      47  40  76 SW3       30.26R
MANSFIELD      FAIR      50  38  63 S9        30.25R
YOUNGSTOWN     FAIR      52  39  61 S6        30.25R
$$

OHZ042-051>053-060>062-070>072-077>081-180300-
  SOUTHWEST OHIO

CITY           SKY/WX    TMP DP  RH WIND       PRES   REMARKS
CINC-COVINGTON FAIR      51  45  79 S6        30.27S
CINC-LUNKEN    FAIR      48  46  93 CALM      30.29S
HAMILTON       FAIR      44  42  93 CALM      30.28S
DAYTON         FAIR      55  41  59 S9        30.27S
WRIGHT-PAT AFB FAIR      51  39  65 CALM      30.26S
DAYTON GENERAL FAIR      53  40  61 S5        30.26S
WILMINGTON     FAIR      48  41  76 CALM      30.28R
$$

OHZ036-037-039>041-045>050-054>059-063>069-073>076-082>088-180300-
  CENTRAL AND SOUTHEAST OHIO

CITY           SKY/WX    TMP DP  RH WIND       PRES   REMARKS
COLUMBUS       FAIR      53  41  63 CALM      30.27R
OSU AIRPORT    FAIR      53  40  61 S6        30.26R
BOLTON FIELD   FAIR      46  40  80 SW3       30.27R
RICKENBACK AFB FAIR      51  41  69 CALM      30.27R
NEWARK         FAIR      47  41  80 CALM      30.27R
MARION         FAIR      53  37  54 SW8       30.26R
LANCASTER      FAIR      44  41  89 CALM      30.28R
ZANESVILLE     FAIR      49  41  74 S3        30.28R
NEW PHILLY     FAIR      47  42  83 SE3       30.28R
$$




USA.gov is the U.S. government's official web portal to all federal, state and local government web resources and services.